Find Geely Xingzuo 06 zu 10 xing

NORAD ID: 65722 Int'l Des: 2025-214 Owner: GEESP Country: CN Constellation: geesatcom operational
LEOCIRCULAR

Live Position

Loading 3D Globe...

About Geely Xingzuo 06 zu 10 xing

Description loading...

Upcoming Passes

Passes for default location (London). Set your location on the main map for personalized predictions.

Altitude History

Loading altitude history...

Two-Line Element Set

1 65722U 25214L 26105.07093597 .00000869 00000-0 13283-3 0 9993
2 65722 49.9897 241.0915 0011687 350.5632 9.5084 14.83167279 30130
Epoch: Apr 15, 2026 • Age: 19 hours

Current Status

Altitude 636.6 km
Velocity 7.54 km/s
Sub-Earth Point -48.29°S, 26.69°W
Launch Date Sep 24, 2025
Age 0.5 years
Type other

Technical Details

Classification Payload
Mass 130.00 kg
Dry Mass 130.00 kg
Total Mass 130.00 kg
Length 1.00 m
Diameter 0.50 m
Span 2.00 m
Shape Box + 2 pan
Manufacturer GWCG
Bus Type GPS100
Phase Status In Orbit
Owner/State GEESP/CN

Most Searched